Location: La Pernelle
(49.6188°N, 1.2999°W)
Time: 11:18:19
(UTC+00:00)

Meteor 2-20 - Pass Details

Date: 29 October 2021
Orbit: 939 x 958 km, 82.5° (Epoch: 08 December)

Event Time Altitude Azimuth Distance (km) Brightness Sun altitude
Rises 05:36:30 0° 203° (SSW) 3,604 7.3 -12.3°
Reaches altitude 10° 05:39:03 10° 207° (SSW) 2,660 6.6 -11.9°
Maximum altitude 05:45:00 55° 285° (WNW) 1,124 4.5 -10.9°
Drops below altitude 10° 05:50:59 10° 3° (N) 2,668 6.7 -9.9°
Sets 05:53:33 0° 8° (N) 3,616 7.5 -9.5°
